Council Bluffs, IA

3:16 PM CST on February 20, 2017 (GMT -0600)
Council Bluffs Municipal

Weather History for KCBF - May, 2013

Change the Weather History Date:

Saturday, May 11, 2013

  Actual Average Record
Temperature  
Mean Temperature 52 °F -  
Max Temperature 59 °F 70 °F 95 °F (2000)
Min Temperature 46 °F 50 °F 39 °F (2008)
Degree Days  
Heating Degree Days 12    
Growing Degree Days 2 (Base 50)    
Moisture  
Dew Point 31 °F    
Average Humidity 45    
Maximum Humidity 88    
Minimum Humidity 25    
Precipitation  
Precipitation 0.00 in - - ()
Sea Level Pressure  
Sea Level Pressure 30.18 in    
Wind  
Wind Speed 12 mph (NNW)    
Max Wind Speed 29 mph    
Max Gust Speed 43 mph    
Visibility 10 miles    
Events      
Averages and records for this station are not official NWS values.
T = Trace of Precipitation, MM = Missing Value Source: NWS Daily Summary

Daily Weather History Graph

Daily Weather History Graph

Search for Another Location

Airport or City:

Trip Planner

Search our weather history database for the weather conditions in past years. The results will help you decide how hot, cold, wet, or windy it might be!

Date:

Astronomy

May. 11, 2013 Rise Set
Actual Time 6:08 AM CDT 8:31 PM CDT
Civil Twilight 5:37 AM CDT 9:02 PM CDT
Nautical Twilight 4:58 AM CDT 9:40 PM CDT
Astronomical Twilight 4:16 AM CDT 10:23 PM CDT
Moon 7:16 AM CDT (5/11) 10:12 PM CDT (5/11)
Length of Visible Light 15h 24m
Length of Day
14h 22m
Waxing Crescent, 3% of the Moon is Illuminated
May 11
Waxing Crescent
May 17
First Quarter
May 24
Full
May 31
Last Quarter
Jun 8
New

Hourly Weather History & Observations

Time (CDT) Temp. Windchill Dew Point Humidity Pressure Visibility Wind Dir Wind Speed Gust Speed Precip Events Conditions
12:15 AM 57.2 °F - 44.6 °F 63% 30.04 in 10.0 mi SSW 4.6 mph - N/A   Unknown
12:35 AM 53.6 °F - 46.4 °F 77% 30.03 in 10.0 mi SSW 4.6 mph - N/A   Unknown
12:55 AM 53.6 °F - 46.4 °F 77% 30.03 in 10.0 mi SSW 6.9 mph - N/A   Unknown
1:15 AM 55.4 °F - 48.2 °F 77% 30.03 in 10.0 mi SW 9.2 mph - N/A   Unknown
1:35 AM 55.4 °F - 48.2 °F 77% 30.03 in 10.0 mi SW 9.2 mph - N/A   Unknown
1:55 AM 53.6 °F - 48.2 °F 82% 30.02 in 10.0 mi SW 9.2 mph - N/A   Unknown
2:15 AM 51.8 °F - 48.2 °F 88% 30.02 in 10.0 mi SW 5.8 mph - N/A   Unknown
2:35 AM 51.8 °F - 48.2 °F 88% 30.02 in 10.0 mi WSW 8.1 mph - N/A   Unknown
2:55 AM 51.8 °F - 48.2 °F 88% 30.03 in 10.0 mi West 6.9 mph - N/A   Scattered Clouds
3:15 AM 53.6 °F - 46.4 °F 77% 30.04 in 10.0 mi WNW 10.4 mph - N/A   Partly Cloudy
3:35 AM 55.4 °F - 46.4 °F 72% 30.06 in 10.0 mi NW 17.3 mph - N/A   Clear
3:55 AM 53.6 °F - 46.4 °F 77% 30.07 in 10.0 mi North 15.0 mph 21.9 mph N/A   Clear
4:15 AM 53.6 °F - 42.8 °F 67% 30.09 in 10.0 mi North 16.1 mph - N/A   Clear
4:35 AM 51.8 °F - 39.2 °F 62% 30.10 in 10.0 mi North 12.7 mph - N/A   Clear
4:55 AM 51.8 °F - 37.4 °F 58% 30.11 in 10.0 mi North 13.8 mph - N/A   Unknown
5:15 AM 50.0 °F - 35.6 °F 58% 30.12 in 10.0 mi North 13.8 mph - N/A   Unknown
5:35 AM 48.2 °F - 35.6 °F 62% 30.13 in 10.0 mi North 11.5 mph - N/A   Clear
5:55 AM 48.2 °F - 32.0 °F 54% 30.14 in 10.0 mi North 11.5 mph 17.3 mph N/A   Clear
6:15 AM 48.2 °F - 32.0 °F 54% 30.15 in 10.0 mi North 9.2 mph - N/A   Clear
6:35 AM 48.2 °F - 32.0 °F 54% 30.16 in 10.0 mi North 12.7 mph - N/A   Clear
6:55 AM 48.2 °F - 32.0 °F 54% 30.17 in 10.0 mi NNW 12.7 mph - N/A   Clear
7:15 AM 48.2 °F - 32.0 °F 54% 30.18 in 10.0 mi North 15.0 mph - N/A   Clear
7:35 AM 50.0 °F - 32.0 °F 50% 30.19 in 10.0 mi North 11.5 mph 18.4 mph N/A   Clear
7:55 AM 50.0 °F - 32.0 °F 50% 30.20 in 10.0 mi NNW 12.7 mph - N/A   Clear
8:15 AM 50.0 °F - 32.0 °F 50% 30.21 in 10.0 mi NNW 11.5 mph 21.9 mph N/A   Clear
8:35 AM 51.8 °F - 32.0 °F 47% 30.21 in 10.0 mi NNW 12.7 mph - N/A   Clear
8:55 AM 51.8 °F - 32.0 °F 47% 30.22 in 10.0 mi NNW 13.8 mph - N/A   Clear
9:15 AM 53.6 °F - 32.0 °F 44% 30.23 in 10.0 mi NNW 12.7 mph 18.4 mph N/A   Clear
9:35 AM 53.6 °F - 30.2 °F 41% 30.22 in 10.0 mi NNW 19.6 mph 26.5 mph N/A   Clear
9:55 AM 55.4 °F - 30.2 °F 38% 30.22 in 10.0 mi NNW 18.4 mph 26.5 mph N/A   Clear
10:15 AM 55.4 °F - 28.4 °F 36% 30.23 in 10.0 mi NNW 19.6 mph - N/A   Clear
10:35 AM 55.4 °F - 26.6 °F 33% 30.22 in 10.0 mi NNW 25.3 mph 38.0 mph N/A   Clear
10:55 AM 57.2 °F - 26.6 °F 31% 30.23 in 10.0 mi NNW 25.3 mph 35.7 mph N/A   Clear
11:15 AM 57.2 °F - 26.6 °F 31% 30.23 in 10.0 mi NNW 25.3 mph 36.8 mph N/A   Clear
11:35 AM 57.2 °F - 28.4 °F 33% 30.23 in 10.0 mi NNW 24.2 mph 33.4 mph N/A   Clear
11:55 AM 57.2 °F - 26.6 °F 31% 30.23 in 10.0 mi NNW 28.8 mph 35.7 mph N/A   Clear
12:15 PM 57.2 °F - 28.4 °F 33% 30.24 in 10.0 mi NNW 20.7 mph 34.5 mph N/A   Clear
12:35 PM 57.2 °F - 26.6 °F 31% 30.23 in 10.0 mi NNW 19.6 mph 35.7 mph N/A   Clear
12:55 PM 57.2 °F - 28.4 °F 33% 30.23 in 10.0 mi NNW 27.6 mph 34.5 mph N/A   Clear
1:15 PM 59.0 °F - 26.6 °F 29% 30.23 in 10.0 mi NNW 19.6 mph 28.8 mph N/A   Clear
1:35 PM 57.2 °F - 26.6 °F 31% 30.23 in 10.0 mi NNW 21.9 mph 35.7 mph N/A   Clear
1:55 PM 59.0 °F - 28.4 °F 31% 30.24 in 10.0 mi NNW 21.9 mph 28.8 mph N/A   Clear
2:15 PM 59.0 °F - 26.6 °F 29% 30.23 in 10.0 mi North 20.7 mph 33.4 mph N/A   Clear
2:35 PM 59.0 °F - 24.8 °F 27% 30.23 in 10.0 mi North 20.7 mph 31.1 mph N/A   Clear
2:55 PM 59.0 °F - 26.6 °F 29% 30.23 in 10.0 mi North 21.9 mph 42.6 mph N/A   Clear
3:15 PM 59.0 °F - 26.6 °F 29% 30.23 in 10.0 mi NNW 17.3 mph 26.5 mph N/A   Clear
3:35 PM 59.0 °F - 23.0 °F 25% 30.23 in 10.0 mi North 25.3 mph 38.0 mph N/A   Clear
3:55 PM 59.0 °F - 23.0 °F 25% 30.23 in 10.0 mi North 20.7 mph - N/A   Clear
4:15 PM 59.0 °F - 23.0 °F 25% 30.23 in 10.0 mi NW 15.0 mph 31.1 mph N/A   Clear
4:35 PM 59.0 °F - 23.0 °F 25% 30.23 in 10.0 mi NNW 21.9 mph 32.2 mph N/A   Clear
4:55 PM 59.0 °F - 23.0 °F 25% 30.22 in 10.0 mi NW 27.6 mph 35.7 mph N/A   Clear
5:15 PM 59.0 °F - 23.0 °F 25% 30.22 in 10.0 mi North 15.0 mph 25.3 mph N/A   Clear
5:35 PM 57.2 °F - 21.2 °F 25% 30.23 in 10.0 mi NNW 16.1 mph 24.2 mph N/A   Clear
5:55 PM 59.0 °F - 23.0 °F 25% 30.22 in 10.0 mi NNW 15.0 mph 21.9 mph N/A   Clear
6:15 PM 57.2 °F - 23.0 °F 27% 30.23 in 10.0 mi NNW 13.8 mph 26.5 mph N/A   Clear
6:35 PM 57.2 °F - 21.2 °F 25% 30.22 in 10.0 mi NNW 19.6 mph 26.5 mph N/A   Clear
6:55 PM 57.2 °F - 21.2 °F 25% 30.22 in 10.0 mi NNW 11.5 mph 20.7 mph N/A   Clear
7:15 PM 55.4 °F - 21.2 °F 26% 30.22 in 10.0 mi North 15.0 mph 21.9 mph N/A   Clear
7:35 PM 55.4 °F - 23.0 °F 29% 30.23 in 10.0 mi NNW 12.7 mph 21.9 mph N/A   Clear
7:55 PM 53.6 °F - 21.2 °F 28% 30.23 in 10.0 mi NNW 11.5 mph 17.3 mph N/A   Clear
8:15 PM 53.6 °F - 23.0 °F 30% 30.23 in 10.0 mi NNW 10.4 mph 16.1 mph N/A   Clear
8:35 PM 51.8 °F - 23.0 °F 33% 30.23 in 10.0 mi NNW 10.4 mph - N/A   Clear
9:15 PM 50.0 °F - 24.8 °F 37% 30.24 in 10.0 mi NW 6.9 mph - N/A   Clear
9:35 PM 48.2 °F - 24.8 °F 40% 30.24 in 10.0 mi NW 8.1 mph - N/A   Clear
9:55 PM 48.2 °F - 24.8 °F 40% 30.24 in 10.0 mi NW 6.9 mph - N/A   Clear
10:15 PM 48.2 °F - 24.8 °F 40% 30.24 in 10.0 mi NW 8.1 mph - N/A   Clear
10:35 PM 46.4 °F 42.9 °F 24.8 °F 43% 30.24 in 10.0 mi NNW 6.9 mph - N/A   Clear
10:55 PM 46.4 °F 42.9 °F 24.8 °F 43% 30.24 in 10.0 mi NW 6.9 mph - N/A   Clear
11:15 PM 46.4 °F 43.5 °F 24.8 °F 43% 30.24 in 10.0 mi NNW 5.8 mph - N/A   Clear
11:35 PM 46.4 °F 44.3 °F 23.0 °F 40% 30.24 in 10.0 mi NW 4.6 mph - N/A   Clear
11:55 PM 46.4 °F 43.5 °F 21.2 °F 37% 30.24 in 10.0 mi NNW 5.8 mph - N/A   Clear